Location: Aigremont
(47.7188°N, 3.8925°E)
Time: 11:39:56
(UTC+00:00)

BREEZE M DEB (TANK) - Pass Details

Date: 18 February 2020
Orbit: 298 x 14510 km, 49.6° (Epoch: 09 April)

Event Time Altitude Azimuth Distance (km) Brightness Sun altitude
Rises 02:48:52 0° 285° (WNW) 14,523 9.2 -39.5°
Reaches altitude 10° 03:05:40 10° 288° (WNW) 10,551 8.4 -37.1°
Enters shadow 03:16:19 20° 289° (WNW) 7,391 7.6 -35.4°
Exits shadow 03:27:51 45° 285° (WNW) 3,376 5.8 -33.6°
Maximum altitude 03:33:09 79° 208° (SSW) 1,767 4.5 -32.8°
Drops below altitude 10° 03:38:49 10° 122° (ESE) 2,543 6.1 -31.9°
Sets 03:40:15 0° 120° (ESE) 3,111 6.7 -31.7°
